Location: ??????????
(54.7560°N, 39.1389°E)
Time: 12:56:00
(UTC+00:00)

CZ-2C R/B - Pass Details

Date: 19 May 2025
Orbit: 702 x 902 km, 98.2° (Epoch: 19 June)

Event Time Altitude Azimuth Distance (km) Brightness Sun altitude
Rises 21:39:57 0° 19° (NNE) 3,521 8.0 -15.2°
Reaches altitude 10° 21:42:36 10° 28° (NNE) 2,587 6.8 -15.1°
Maximum altitude 21:47:53 35° 93° (E) 1,422 4.4 -15.0°
Enters shadow 21:52:01 15° 153° (SSE) 2,210 4.9 -15.0°
